Location: Blue Mountain Vista Observatory
(40.6992°N, 75.9422°W)
Time: 10:03:31
(UTC-04:00)

Daily predictions for brighter satellites

Satellite Brightness Start Highest point End
(mag) Time Altitude Azimuth Time Altitude Azimuth Time Altitude Azimuth
Cosmos 2228 Rocket 3.1 21:04:49 10° N 21:09:17 71° E 21:13:46 10° SSE
SPOT 5 3.6 21:07:35 10° SE 21:11:40 35° ENE 21:15:57 10° N
ALOS 3.4 21:09:01 10° S 21:13:28 44° W 21:17:56 10° NNW
YAOGAN 6 4.4 21:12:16 10° ESE 21:14:47 18° ENE 21:17:17 10° NNE
Cosmos 1743 Rocket 3.6 21:12:56 10° S 21:17:23 75° E 21:21:52 10° NNE
Cosmos 405 4.4 21:15:30 10° NNE 21:18:33 24° ENE 21:21:33 10° SE
Cosmos 1500 Rocket 3.6 21:19:55 10° S 21:24:11 59° E 21:28:31 10° NNE
USA 186 4.0 21:22:39 10° SW 21:24:14 16° W 21:25:51 10° NW
H-2A R/B 4.2 21:21:59 10° E 21:24:23 13° ENE 21:26:48 10° NNE
Cosmos 2219 4.4 21:21:44 10° SSE 21:26:01 22° E 21:30:19 10° NE
deb Chang Zheng 4 3.5 21:21:55 10° NNE 21:26:16 82° ESE 21:30:36 10° SSW
BREEZE M DEB (TANK) 3.6 21:28:38 10° WSW 21:29:58 15° SSW 21:31:45 10° SSE
Cosmos 2322 4.4 21:28:39 10° N 21:34:04 41° ENE 21:38:57 12° SE
Cosmos 1441 Rocket 3.1 21:31:24 10° S 21:35:10 86° ESE 21:38:58 10° N
SPOT 1/Viking Rocket 4.4 21:31:27 11° SE 21:35:53 35° ENE 21:40:32 10° N
ATLAS CENTAUR R/B 2.7 21:32:01 10° NW 21:36:12 37° WSW 21:40:02 10° S
CZ-2C R/B 1.9 21:37:18 10° SSW 21:38:47 23° W 21:40:15 10° NW
Delta 2 Rocket 4.1 21:36:15 10° SW 21:39:02 22° SSE 21:40:48 15° ESE
Cosmos 1538 Rocket 4.3 21:34:16 10° NNW 21:39:35 73° WSW 21:44:55 10° S
Cosmos 2322 Rocket 2.6 21:34:44 10° NNW 21:40:18 64° WSW 21:45:49 10° S
Cosmos 1680 Rocket 4.2 21:35:26 10° N 21:40:22 40° ENE 21:44:32 14° SE
PSLV R/B 3.3 21:37:46 13° SSE 21:40:24 55° ENE 21:43:25 10° N
OE (NEXTSAT) 4.4 21:38:34 10° WNW 21:42:10 80° NNE 21:45:08 14° ESE
Cosmos 923 Rocket 4.3 21:38:35 10° N 21:43:43 55° ENE 21:47:59 14° SE
Cosmos 1726 4.2 21:43:53 10° NE 21:46:06 15° ENE 21:47:47 12° E
SL-16 R/B 2.7 21:44:00 10° NNW 21:49:34 57° WSW 21:55:05 10° S
Cosmos 1980 Rocket 4.4 21:46:06 10° NW 21:50:08 20° W 21:54:09 10° SW
USA 245 3.6 21:48:59 19° ESE 21:50:12 26° ENE 21:52:21 10° NNE
Cosmos 304 Rocket 4.2 21:46:11 10° N 21:50:53 49° ENE 21:54:23 17° SE
Cosmos 2360 Rocket 2.4 21:45:41 10° NNW 21:51:16 58° ENE 21:55:40 16° SE
Cosmos 1515 Rocket 3.9 21:47:37 10° NNW 21:52:02 65° W 21:56:23 10° S
Cosmos 2315 Rocket 4.3 21:46:33 10° N 21:52:33 49° ENE 21:57:25 16° SSE
Cosmos 1939 Rocket 3.7 21:49:20 10° S 21:53:10 48° W 21:56:59 10° NNW
Cosmos 1908 3.2 21:50:16 10° N 21:54:10 86° E 21:57:31 14° S
CZ-4B R/B 3.8 21:49:06 10° NNE 21:54:15 52° E 21:59:20 10° S
AVUM R/B 2.2 21:52:53 10° SSW 21:55:07 76° ESE 21:57:35 10° NNE
Cosmos 2266 Rocket 4.0 21:51:29 10° S 21:57:48 85° E 22:04:04 10° N
USA 229 DEB 3.9 21:57:21 10° SW 22:04:17 81° NW 22:11:20 10° NNE
USA 229 3.9 21:57:27 10° SW 22:04:23 81° NW 22:11:26 10° NNE
Cosmos 773 Rocket 4.1 22:01:15 10° NNW 22:06:26 73° WSW 22:10:40 16° S
Meteor 2-20 Rocket 4.5 22:00:19 10° S 22:06:29 88° WNW 22:12:40 10° N
Cosmos 1633 Rocket 4.2 22:05:12 20° SE 22:06:57 26° E 22:10:36 10° NNE
Sich 1 4.1 22:05:33 21° SE 22:07:27 28° E 22:11:14 10° NNE
Aureole 3 4.5 22:03:42 10° S 22:10:44 75° E 22:16:26 10° NNE
MetOp-B 4.2 22:06:25 14° S 22:11:06 78° WSW 22:16:30 10° NNW
Cosmos 2151 2.9 22:10:12 11° S 22:14:19 85° WNW 22:18:32 10° N
Cosmos 1674 3.4 22:10:49 10° SSW 22:14:32 54° W 22:18:20 10° N
Terra 3.0 22:12:30 18° ESE 22:14:55 28° ENE 22:18:57 10° N
CZ-4 SHROUD 4.5 22:14:01 14° SSW 22:16:21 36° W 22:19:18 10° NNW
Cosmos 2227 Rocket 3.9 22:15:59 14° ESE 22:16:24 14° E 22:19:14 10° ENE
Cosmos 1437 Rocket 4.0 22:13:42 10° NNW 22:17:14 37° W 22:20:37 11° SSW
SL-23 DEB 4.1 22:12:45 10° NW 22:17:40 64° NNE 22:19:34 25° ESE
Cosmos 1833 4.5 22:12:57 10° SSW 22:18:40 73° WNW 22:24:21 10° NNE
Cosmos 1805 Rocket 3.6 22:17:06 20° S 22:20:03 63° E 22:24:29 10° NNE
Cosmos 2333 Rocket 3.9 22:17:08 10° N 22:21:29 21° NE 22:25:11 12° E
Cosmos 1151 Rocket 3.7 22:17:51 10° NNW 22:22:02 51° W 22:25:32 14° SSW
Meteor 1-4 Rocket 3.9 22:20:01 10° NNE 22:23:14 26° ENE 22:24:10 23° E
Cosmos 1300 2.9 22:19:51 10° N 22:23:38 55° E 22:25:07 32° SE
NOSS 3-1 (A) 3.9 22:20:05 17° S 22:24:04 38° ESE 22:29:53 10° NE
Cosmos 1626 4.4 22:25:01 12° E 22:25:01 12° E 22:26:15 10° ENE
CZ-4 R/B 3.8 22:19:51 10° NNE 22:24:49 73° ESE 22:28:34 17° S
CZ-4C R/B 3.2 22:31:52 39° SE 22:32:54 58° ENE 22:36:20 10° N
SWAS 4.4 22:29:05 10° NNW 22:33:26 85° ENE 22:35:17 34° SSE
COSMOS 2428 2.9 22:27:55 10° NNW 22:33:34 62° ENE 22:36:34 28° SE
Cosmos 1745 Rocket 4.5 22:32:33 25° SE 22:35:38 43° E 22:41:26 10° NNE
Cosmos 1707 Rocket 3.4 22:34:20 10° N 22:38:42 86° ENE 22:40:38 33° S
Cosmos 1666 Rocket 3.4 22:39:51 29° S 22:42:05 81° E 22:46:31 10° N
DELTA 2 R/B (1) 3.6 22:38:04 10° W 22:43:32 58° SSW 22:45:57 32° SE
Cosmos 2297 Rocket 3.8 22:43:59 17° E 22:43:59 17° E 22:47:26 10° ENE
Cosmos 2112 Rocket 4.3 22:39:47 10° NNW 22:44:58 63° WSW 22:47:47 27° S
Meteor 2-11 Rocket 4.4 22:38:56 10° N 22:45:08 89° E 22:48:44 27° S
Cosmos 2298 Rocket 4.0 22:41:52 22° S 22:45:18 70° ESE 22:50:36 10° NNE
Cosmos 2058 3.3 22:42:56 20° SSW 22:45:39 60° W 22:49:43 10° N
Cosmos 1455 3.7 22:43:31 10° NNE 22:46:34 23° ENE 22:46:54 22° E
ATLAS 2AS CENTAUR R/B 3.8 22:45:19 24° SE 22:46:55 26° ESE 22:53:10 10° NE
YAOGAN 6 4.3 22:46:03 16° SW 22:48:11 28° W 22:51:20 10° NW
Cosmos 2219 Rocket 2.8 22:48:55 10° NNW 22:54:18 46° ENE 22:56:41 29° ESE
Cosmos 2237 4.2 22:49:30 10° NNW 22:55:16 84° WSW 22:57:51 34° SSE
Cosmos 1470 Rocket 4.0 22:54:47 40° ESE 22:55:25 42° E 22:59:31 10° NNE
Cosmos 1933 Rocket 4.0 22:56:12 40° ESE 22:56:56 43° E 23:01:11 10° NNE
Cosmos 1937 Rocket 3.6 22:56:44 37° SSE 22:58:31 55° ESE 23:03:37 10° NNE
ARGOS 3.8 22:55:49 22° SSW 22:59:06 49° W 23:04:20 10° NNW
Cosmos 220 Rocket 4.2 23:02:18 48° SE 23:02:52 52° ESE 23:07:11 10° NNE
H-2A R/B 2.1 23:00:41 36° SSE 23:02:58 88° WSW 23:08:25 10° NNW
BREEZE-M DEB (TANK) 3.7 23:04:22 10° NW 23:06:17 28° NNE 23:07:05 24° ENE
SL-14 R/B 4.0 23:05:19 28° SW 23:07:05 50° W 23:10:59 10° N
Cosmos 1980 4.4 23:02:26 10° N 23:07:48 43° ENE 23:10:00 30° ESE
Cosmos 1703 3.1 23:07:24 59° S 23:08:05 88° E 23:12:01 10° N
IGS 5A 3.3 23:07:27 54° SSE 23:08:21 89° E 23:12:33 10° NNW
Cosmos 2219 4.0 23:04:09 10° SW 23:09:44 52° WNW 23:15:22 10° NNE
ATLAS 3B R/B 4.2 23:03:48 10° NNW 23:09:51 29° NE 23:15:01 12° E
NOSS 3-1 (C) 3.5 23:06:23 10° SW 23:12:14 76° NW 23:18:46 10° NNE
Cosmos 1271 Rocket 2.7 23:10:33 10° NNW 23:14:22 74° W 23:14:50 63° SSW
Cosmos 990 Rocket 4.1 23:13:26 46° SE 23:14:26 54° ESE 23:19:27 10° NNE
NOSS 0 Rocket 4.1 23:08:51 10° NNW 23:14:57 62° ENE 23:17:23 37° SE
Cosmos 2242 Rocket 3.8 23:10:51 10° NNW 23:15:16 65° W 23:16:33 43° SSW
Cosmos 2333 4.2 23:10:40 10° NNW 23:16:23 77° WSW 23:18:26 41° S
Cosmos 2237 Rocket 2.7 23:15:46 10° NNW 23:21:20 50° ENE 23:23:15 36° ESE
Cosmos 1726 3.4 23:18:10 10° NNW 23:21:36 33° W 23:22:28 29° WSW
SAR-Lupe-2 3.8 23:22:48 58° WSW 23:22:55 58° WSW 23:26:29 10° NNW
Cosmos 2082 3.9 23:21:49 45° SE 23:22:59 52° ESE 23:28:32 10° NNE
Iridium 2 4.4 23:28:43 43° WSW 23:29:22 48° W 23:33:07 10° N
Cosmos 2360 Rocket 4.1 23:30:51 10° NW 23:34:44 19° W 23:37:27 14° SW
Cosmos 1898 Rocket 4.3 23:33:17 19° SW 23:36:48 47° WNW 23:41:50 10° N
Cosmos 1862 Rocket 3.4 23:32:34 10° N 23:36:57 84° W 23:37:19 74° SSW
Cosmos 1125 Rocket 4.0 23:42:38 41° ESE 23:42:42 41° ESE 23:47:40 10° NNE
CZ-4B R/B 3.8 23:43:58 16° ENE 23:43:58 16° ENE 23:45:47 10° NNE
Spot 4 4.5 23:44:35 39° SW 23:45:39 46° W 23:50:19 10° NNW
Terra 3.1 23:51:23 27° WSW 23:52:33 30° W 23:56:45 10° NW
